OKPRC LKPR-LDSP

Flight info

Callsign OKPRC
Flight time N/A
Altitude 25000
Route VOZ DCT PISAM DCT PETOV DCT NIVES DCT NUPSO
Aircraft PC12/L-SDFGRWY/S

Departure

Time 2026-05-06 18:44
Airport Václav Havel Airport Prague (LKPR)

Arrival

Time N/A
Airport Split Saint Jerome Airport (LDSP)
Time Latitude Longitude Altitude Speed Heading
2026-05-06 18:13 50.09922 14.28554 1209 ft 0 kts 187°
2026-05-06 18:24 50.09914 14.28552 1209 ft 4 kts 184°
2026-05-06 18:24 50.09880 14.28525 1209 ft 6 kts 251°
2026-05-06 18:25 50.09849 14.28464 1209 ft 10 kts 189°
2026-05-06 18:25 50.09777 14.28433 1209 ft 10 kts 231°
2026-05-06 18:25 50.09763 14.28334 1209 ft 11 kts 258°
2026-05-06 18:25 50.09743 14.28185 1209 ft 16 kts 259°
2026-05-06 18:26 50.09720 14.28008 1209 ft 17 kts 258°
2026-05-06 18:26 50.09694 14.27824 1203 ft 19 kts 257°
2026-05-06 18:26 50.09643 14.27679 1205 ft 10 kts 249°
2026-05-06 18:26 50.09675 14.27587 1203 ft 12 kts 316°
2026-05-06 18:27 50.09743 14.27483 1202 ft 15 kts 315°
2026-05-06 18:27 50.09818 14.27366 1200 ft 16 kts 314°
2026-05-06 18:27 50.09867 14.27284 1198 ft 0 kts 307°
2026-05-06 18:30 50.09867 14.27285 1198 ft 0 kts 307°
2026-05-06 18:30 50.09867 14.27284 1198 ft 0 kts 307°
2026-05-06 18:31 50.09871 14.27277 1198 ft 5 kts 309°
2026-05-06 18:31 50.09916 14.27184 1197 ft 15 kts 308°
2026-05-06 18:31 50.09983 14.27045 1194 ft 17 kts 306°
2026-05-06 18:31 50.10057 14.26893 1187 ft 18 kts 307°
2026-05-06 18:32 50.10143 14.26717 1176 ft 22 kts 307°
2026-05-06 18:32 50.10235 14.26524 1174 ft 22 kts 308°
2026-05-06 18:32 50.10323 14.26340 1171 ft 21 kts 304°
2026-05-06 18:32 50.10399 14.26181 1171 ft 11 kts 309°
2026-05-06 18:33 50.10413 14.26154 1172 ft 0 kts 307°
2026-05-06 18:34 50.10418 14.26142 1172 ft 5 kts 308°
2026-05-06 18:34 50.10458 14.26063 1169 ft 13 kts 308°
2026-05-06 18:34 50.10511 14.25919 1172 ft 16 kts 267°
2026-05-06 18:34 50.10487 14.25766 1172 ft 13 kts 258°
2026-05-06 18:35 50.10469 14.25676 1177 ft 5 kts 218°
2026-05-06 18:35 50.10438 14.25664 1179 ft 4 kts 188°
2026-05-06 18:35 50.10437 14.25664 1179 ft 0 kts 188°
2026-05-06 18:42 50.10430 14.25662 1177 ft 5 kts 185°
2026-05-06 18:42 50.10367 14.25659 1180 ft 13 kts 177°
2026-05-06 18:43 50.10266 14.25700 1183 ft 12 kts 159°
2026-05-06 18:43 50.10200 14.25780 1184 ft 20 kts 127°
2026-05-06 18:43 50.10000 14.26188 1190 ft 74 kts 128°
2026-05-06 18:43 50.09615 14.27004 1292 ft 106 kts 126°
2026-05-06 18:44 50.09169 14.27914 1603 ft 107 kts 129°
2026-05-06 18:44 50.08854 14.28531 1816 ft 109 kts 129°
2026-05-06 18:44 50.08384 14.29460 2167 ft 108 kts 133°
2026-05-06 18:44 50.07682 14.29698 2417 ft 112 kts 207°
2026-05-06 18:45 50.07055 14.28899 2571 ft 124 kts 218°
2026-05-06 18:45 50.06256 14.28546 2993 ft 115 kts 189°
2026-05-06 18:45 50.05468 14.28346 3313 ft 116 kts 192°
2026-05-06 18:45 50.04663 14.28140 3616 ft 119 kts 192°
2026-05-06 18:46 50.03817 14.27925 3885 ft 128 kts 191°
2026-05-06 18:46 50.02899 14.27703 4249 ft 131 kts 190°
2026-05-06 18:46 50.02001 14.27493 4671 ft 129 kts 190°
2026-05-06 18:46 50.01112 14.27285 5081 ft 129 kts 191°
2026-05-06 18:47 50.00043 14.27032 5594 ft 127 kts 191°
2026-05-06 18:47 49.99345 14.26865 5942 ft 126 kts 192°
2026-05-06 18:47 49.98485 14.26661 6362 ft 124 kts 192°
2026-05-06 18:47 49.97619 14.26532 6714 ft 128 kts 178°
2026-05-06 18:48 49.96791 14.27121 7136 ft 132 kts 153°
2026-05-06 18:48 49.96001 14.27860 7508 ft 133 kts 158°
2026-05-06 18:48 49.95196 14.28585 7898 ft 134 kts 158°
2026-05-06 18:48 49.94344 14.29363 8322 ft 136 kts 158°